Location: Geremba
(10.4250°N, 67.2394°W)
Time: 11:51:15
(UTC+00:00)

Cosmos 1339 Rocket - Pass Details

Date: 23 May 2024
Orbit: 942 x 1004 km, 82.9° (Epoch: 20 June)

Event Time Altitude Azimuth Distance (km) Brightness Sun altitude
Rises 08:40:11 0° 353° (N) 3,710 7.8 -20.2°
Reaches altitude 10° 08:42:43 10° 351° (N) 2,765 7.1 -19.6°
Maximum altitude 08:49:03 73° 267° (W) 1,045 4.5 -18.2°
Drops below altitude 10° 08:55:24 10° 183° (S) 2,769 6.6 -16.8°
Sets 08:57:56 0° 181° (S) 3,715 7.3 -16.3°
